Location: Sungai Bunut
(2.6333°N, 113.7333°E)
Time: 22:01:28
(UTC+00:00)

SR - All Passes

Search period start: 06 December 2023 00:00
Search period end: 16 December 2023 00:00
Orbit: 571 x 872 km, 66.7° (Epoch: 06 December)

Date Brightness Start Highest point End Pass type
(mag) Time Alt. Az. Time Alt. Az. Time Alt. Az.
06 Dec - 02:20:20 10° SSW 02:25:12 71° WNW 02:30:33 10° NNE daylight
06 Dec - 13:04:30 10° NNE 13:08:26 21° ENE 13:12:09 10° ESE night (unlit)
06 Dec - 14:46:16 10° WNW 14:50:06 21° WSW 14:53:43 10° SSW night (unlit)
07 Dec - 01:29:14 10° S 01:33:48 41° ESE 01:38:46 10° NE daylight
07 Dec - 03:13:46 10° W 03:15:41 12° WNW 03:17:40 10° NW daylight
07 Dec - 13:53:38 10° NNW 13:58:45 61° WSW 14:03:27 10° S night (unlit)
08 Dec - 00:39:45 10° SE 00:42:29 15° ESE 00:45:20 10° ENE daylight
08 Dec - 02:19:36 10° SW 02:24:02 32° WNW 02:28:48 10° N daylight
08 Dec - 13:02:18 10° N 13:07:18 46° ENE 13:11:52 10° SE night (unlit)
09 Dec - 01:27:35 10° SSW 01:32:31 90° W 01:37:54 10° NNE daylight
09 Dec - 12:12:25 10° NNE 12:15:41 17° ENE 12:18:49 10° ESE night (unlit)
09 Dec - 13:53:09 10° NW 13:57:25 27° WSW 14:01:25 10° SSW night (unlit)
10 Dec - 00:36:46 10° S 00:41:08 32° ESE 00:45:50 10° NE daylight
10 Dec - 02:19:55 10° WSW 02:22:55 16° WNW 02:26:03 10° NNW daylight
10 Dec - 13:00:53 10° NNW 13:06:03 79° WSW 13:10:47 10° SSE night (unlit)
10 Dec - 23:48:12 10° SE 23:49:48 11° ESE 23:51:25 10° E daylight
11 Dec - 01:26:36 10° SW 01:31:18 41° WNW 01:36:22 10° N daylight
11 Dec - 12:09:50 10° N 12:14:33 35° ENE 12:18:55 10° SE night (unlit)
11 Dec - 13:54:12 10° W 13:56:03 12° WSW 13:57:52 10° SW night (unlit)
12 Dec - 00:34:53 10° SSW 00:39:48 71° ESE 00:45:11 10° NNE daylight
12 Dec - 11:20:36 10° NE 11:22:54 13° ENE 11:25:08 10° E night (unlit)
12 Dec - 13:00:07 10° NW 13:04:43 34° WSW 13:09:00 10° S night (unlit)
12 Dec - 23:44:22 10° SSE 23:48:26 25° ESE 23:52:46 10° NE daylight
13 Dec - 01:26:28 10° WSW 01:30:09 20° WNW 01:34:02 10° NNW daylight
13 Dec - 12:08:10 10° NNW 12:13:20 80° ENE 12:18:03 10° SSE visible
14 Dec - 00:33:40 10° SW 00:38:33 53° WNW 00:43:50 10° N daylight
14 Dec - 11:17:25 10° N 11:21:46 28° ENE 11:25:50 10° SE visible
14 Dec - 13:00:26 10° WNW 13:03:20 16° WSW 13:06:08 10° SW visible
14 Dec - 23:42:13 10° S 23:47:04 55° ESE 23:52:22 10° NNE daylight
15 Dec - 12:07:10 10° NW 12:12:00 44° WSW 12:16:27 10° S visible
15 Dec - 22:52:04 10° SSE 22:55:43 20° ESE 22:59:34 10° ENE daylight
